This is the latest recevied weather packets stored in our database for station/object JA3QOS-13. If no packets are shown the sender has not sent any weather packets the latest 10 day(s).
| Time | Temp. | Humidity | Pressure | Rain* | Wind** | Luminosity | Snow |
|---|---|---|---|---|---|---|---|
| 1787938204 | 22.78° C | 99% | 1011.2 hPa | 0.25 mm | - | - | - |
| 1787936403 | 22.78° C | 99% | 1011.4 hPa | 0 mm | - | - | - |
| 1787934603 | 23.33° C | 99% | 1011.8 hPa | 0 mm | - | - | - |
| 1787932804 | 23.33° C | 99% | 1012 hPa | 0 mm | - | - | - |
| 1787931003 | 23.33° C | 99% | 1011.9 hPa | 0 mm | - | - | - |
| 1787929206 | 23.33° C | 99% | 1012.3 hPa | 0 mm | - | - | - |
| 1787927404 | 23.33° C | 99% | 1012 hPa | 0 mm | - | - | - |
| 1787925604 | 23.33° C | 99% | 1012.1 hPa | 0 mm | - | - | - |
| 1787923803 | 23.33° C | 99% | 1012.4 hPa | 0 mm | - | - | - |
| 1787922004 | 23.33° C | 99% | 1012.4 hPa | 0 mm | - | - | - |
| 1787920203 | 23.33° C | 99% | 1012.7 hPa | 0 mm | - | - | - |
| 1787918403 | 23.33° C | 99% | 1012.9 hPa | 0 mm | - | - | - |
| 1787916604 | 23.33° C | 99% | 1012.7 hPa | 0 mm | - | - | - |
| 1787914804 | 23.89° C | 97% | 1012.5 hPa | 0 mm | - | - | - |
| 1787913004 | 24.44° C | 95% | 1012.1 hPa | 0 mm | - | - | - |
| 1787911204 | 23.89° C | 93% | 1011.8 hPa | 0 mm | - | - | - |
| 1787909404 | 22.78° C | 99% | 1011.8 hPa | 0 mm | - | - | - |
| 1787907604 | 23.33° C | 99% | 1011.9 hPa | 0 mm | - | - | - |
| 1787905804 | 23.89° C | 99% | 1012 hPa | 0 mm | - | - | - |
| 1787904004 | 24.44° C | 99% | 1011.7 hPa | 0 mm | - | - | - |
| 1787902203 | 25.56° C | 99% | 1011.8 hPa | 0 mm | - | - | - |
| 1787900404 | 25° C | 99% | 1011.8 hPa | 0 mm | - | - | - |
| 1787898604 | 25.56° C | 99% | 1011.8 hPa | 0 mm | - | - | - |
| 1787896803 | 24.44° C | 99% | 1012.2 hPa | 0 mm | - | - | - |
| 1787895003 | 24.44° C | 99% | 1012 hPa | 0 mm | - | - | - |
* Rain latest hour (hover to see other rain measurements)
** Current wind speed in m/s (hover to see current wind gust speed)